CAPE
0 0 0 2 0 0 1 35 33 12 0 0 0 1 0 0 0 0 1 23 2 2 0 16 59 70 39 6 12 3 4 8 8 1 1 0 1 9 10 68 50 0 0 0 0
0 0 0 0 3 3 0 2 33 30 29 0 0 17 0 0 0 0 0 0 0 0 0 22 68 71 15 0 9 10 43 5 0 0 0 0 0 2 22 65 68 15 0 0 2
19 9 0 0 0 20 16 1 0 36 46 37 0 11 26 0 29 0 0 0 0 0 0 0 7 81 37 4 1 3 14 0 0 0 0 0 0 0 0 45 18 50 0 1 0
0 19 0 0 0 0 38 17 0 0 32 52 11 0 56 26 10 0 0 0 5 4 0 0 16 96 60 18 0 0 6 0 0 0 0 0 0 0 0 0 0 99 0 0 0
0 6 0 0 0 0 21 35 2 0 1 49 67 6 65 62 11 0 0 0 0 5 1 8 19 51 66 18 9 0 0 0 0 0 0 0 0 0 0 0 6 121 0 0 0
0 0 1 0 0 0 13 38 23 0 0 32 97 36 62 31 62 15 0 0 0 0 0 6 14 24 47 61 39 4 2 0 0 0 0 0 0 0 0 1 59 116 60 13 0
4 0 0 0 0 0 10 32 37 22 0 17 103 38 49 11 58 35 0 0 0 0 2 0 23 41 54 38 41 26 14 0 0 0 0 0 0 0 0 0 56 104 127 85 38
37 3 0 0 0 0 0 15 46 36 1 106 122 64 26 5 50 26 30 2 1 0 10 0 0 51 42 0 5 41 20 5 0 0 0 0 0 0 0 3 40 84 133 122 89
45 30 0 0 0 0 0 15 60 28 79 242 50 74 16 58 6 0 51 30 25 28 44 12 2 26 28 29 4 45 15 3 0 0 0 0 0 5 0 0 9 116 166 185 144
60 51 0 0 0 0 11 28 26 49 249 118 40 42 1 5 28 14 31 55 64 40 92 60 14 13 45 35 6 5 16 2 0 0 3 0 0 2 0 1 4 21 160 172 197
72 53 6 0 0 0 18 93 119 182 174 30 30 0 4 33 63 60 24 62 67 74 17 64 53 19 8 19 6 3 5 1 0 0 0 1 0 0 0 0 0 1 177 196 198
87 38 0 0 11 30 8 17 79 129 23 32 16 0 3 63 45 53 109 77 57 50 31 37 4 0 2 44 24 15 6 4 0 0 0 0 1 0 0 0 0 0 94 214 202
68 25 0 34 18 24 19 7 171 210 133 23 1 23 18 44 39 49 74 30 49 52 61 10 12 22 5 12 41 25 31 3 1 2 1 0 0 0 0 0 0 0 0 157 94
36 26 12 35 16 27 3 11 120 283 88 31 0 0 12 24 16 32 51 44 48 4 18 44 35 27 13 5 5 14 4 0 0 2 11 12 1 0 0 0 0 0 0 56 1
36 30 22 35 29 3 24 66 201 174 1 0 11 76 23 19 29 47 76 65 35 36 35 9 30 32 16 14 5 12 9 0 0 5 1 4 2 0 0 3 0 0 5 0 0
45 58 47 2 77 42 101 236 280 74 0 8 43 1 1 18 23 34 49 69 45 40 34 35 6 18 33 38 16 22 0 1 1 4 1 2 0 0 0 3 0 0 0 0 0
18 0 3 16 29 22 113 243 21 0 0 1 18 28 1 0 2 45 33 23 15 11 6 9 0 6 14 82 42 60 7 0 0 1 0 0 3 0 0 0 0 0 0 0 0
0 0 0 1 6 21 158 10 0 0 0 0 1 0 21 0 4 25 36 28 23 8 0 0 1 13 3 31 34 43 9 0 1 0 0 0 0 0 0 0 0 0 0 0 0
0 27 12 0 1 33 10 1 19 0 0 0 9 0 8 6 13 14 28 33 24 2 18 1 4 13 0 0 12 18 44 0 0 0 0 0 0 0 0 0 0 0 0 0 0
17 20 0 0 0 30 0 18 4 0 0 4 4 2 3 0 5 14 3 7 24 14 10 26 14 0 1 4 1 1 0 0 0 0 0 0 0 0 0 0 0 0 0 0 0
20 3 0 0 0 0 3 4 1 10 6 14 5 0 2 17 0 1 4 0 3 22 16 14 3 6 11 20 24 9 1 1 0 0 0 0 0 0 0 0 0 0 0 0 0
16 1 0 0 0 0 0 0 0 15 5 15 1 16 0 4 2 2 1 9 7 9 25 9 6 7 6 1 1 0 10 0 0 0 0 0 0 0 0 0 0 0 0 0 0
37 10 0 0 1 0 0 0 0 0 6 22 23 9 7 1 5 0 4 1 0 19 5 9 0 0 1 0 2 2 0 0 0 0 0 0 0 0 0 0 0 0 1 0 0
8 0 0 1 0 0 0 0 0 0 0 4 12 6 4 2 3 8 12 15 2 1 9 5 1 3 0 0 0 1 0 0 0 0 0 0 0 0 0 0 0 0 0 0 0
0 0 0 0 0 1 0 0 0 0 0 0 2 3 10 3 11 4 2 10 4 6 5 4 4 0 0 0 0 0 1 2 6 0 0 0 0 0 0 0 0 0 0 0 0
0 0 0 0 0 0 0 0 0 0 0 0 2 0 3 6 3 3 0 5 9 3 9 4 2 0 0 0 0 0 0 0 1 0 0 0 0 0 0 0 0 0 0 0 0
0 0 0 0 0 0 0 0 0 0 0 0 5 3 2 0 2 1 8 9 6 1 1 2 1 0 0 0 0 0 0 0 0 0 0 0 0 0 0 0 0 0 0 0 0
CIN
-0 -0 -0 -0 -0 -0 -0 -0 -0 -0 -0 -0 -0 -0 -0 -0 -0 -0 -0 -1 -9 -29 -0 -191 -121 -85 -73 -86 -81 -143 -95 -14 -14 -16 -18 -0 -11 -64 -79 -44 -35 -0 -0 -0 -0
-0 -0 -0 -0 -0 -0 -0 -0 -0 -0 -0 -0 -0 -0 -0 -0 -0 -0 -0 -0 -33 -0 -0 -128 -71 -54 -49 -24 -55 -106 -51 -40 -0 -0 -0 -0 -0 -55 -46 -31 -46 -47 -0 -0 -0
-2 -0 -0 -0 -0 -0 -0 -0 -0 -0 -0 -0 -0 -0 -8 -0 -0 -0 -0 -0 -0 -38 -0 -0 -86 -10 -24 -16 -30 -69 -57 -0 -0 -0 -0 -0 -0 -0 -0 -15 -26 -67 -0 -0 -0
-0 -2 -0 -0 -0 -0 -0 -0 -0 -0 -0 -0 -2 -0 -5 -5 -0 -0 -0 -0 -21 -0 -0 -0 -46 -2 -5 -3 -0 -0 -57 -0 -0 -0 -0 -0 -0 -0 -0 -0 -0 -62 -0 -0 -0
-0 -2 -0 -0 -0 -0 -0 -0 -3 -0 -7 -0 -0 -3 -4 -0 -0 -0 -0 -0 -0 -5 -18 -23 -6 -30 -0 -19 -22 -0 -15 -13 -0 -0 -0 -0 -0 -0 -0 -0 -28 -124 -0 -0 -0
-0 -0 -0 -0 -0 -0 -0 -0 -0 -0 -0 -14 -0 -6 -0 -0 -7 -19 -0 -0 -0 -0 -0 -14 -5 -3 -12 -5 -12 -4 -35 -0 -0 -0 -0 -0 -0 -0 -0 -36 -89 -121 -178 -131 -0
-0 -0 -0 -0 -0 -0 -0 -0 -0 -6 -0 -32 -1 -3 -0 -1 -10 -9 -0 -0 -0 -0 -0 -0 -5 -0 -14 -14 -45 -3 -23 -0 -0 -0 -0 -0 -0 -0 -0 -3 -83 -83 -97 -109 -116
-1 -0 -0 -0 -0 -0 -0 -4 -2 -5 -5 -3 -11 -3 -0 -1 -4 -16 -3 -4 -1 -0 -0 -2 -0 -0 -4 -43 -54 -24 -24 -7 -6 -0 -0 -0 -0 -0 -0 -83 -63 -59 -74 -86 -77
-3 -5 -0 -0 -0 -0 -0 -8 -10 -19 -22 -1 -18 -0 -0 -50 -3 -0 -6 -23 -29 -18 -1 -2 -0 -0 -6 -0 -1 -8 -3 -3 -0 -0 -0 -0 -0 -17 -0 -27 -52 -17 -47 -59 -84
-5 -4 -0 -0 -0 -0 -13 -12 -24 -28 -6 -7 -14 -2 -24 -0 -2 -3 -9 -27 -27 -15 -0 -0 -0 -2 -0 -0 -0 -1 -2 -18 -0 -0 -21 -1 -0 -9 -0 -12 -9 -22 -16 -52 -42
-3 -4 -19 -0 -0 -0 -13 -10 -3 -0 -0 -3 -0 -0 -3 -0 -8 -5 -11 -2 -9 -15 -1 -0 -0 -0 -0 -7 -6 -4 -3 -5 -0 -0 -0 -3 -0 -0 -0 -0 -0 -1 -9 -20 -23
-2 -6 -0 -0 -3 -8 -16 -0 -2 -1 -4 -7 -8 -0 -3 -9 -0 -0 -1 -0 -8 -2 -3 -0 -0 -0 -0 -5 -10 -1 -5 -5 -0 -0 -0 -0 -4 -0 -0 -0 -0 -0 -9 -8 -7
-2 -6 -0 -1 -8 -13 -1 -0 -3 -0 -0 -1 -6 -7 -0 -5 -2 -1 -7 -0 -0 -1 -0 -0 -0 -2 -6 -2 -0 -3 -3 -2 -5 -0 -0 -1 -1 -0 -0 -0 -0 -0 -0 -26 -96
-3 -3 -1 -5 -14 -1 -0 -6 -3 -0 -0 -3 -0 -0 -13 -5 -3 -3 -5 -2 -1 -0 -1 -1 -2 -0 -0 -0 -0 -0 -17 -0 -0 -4 -0 -3 -0 -0 -0 -0 -0 -0 -0 -80 -2
-1 -2 -7 -9 -0 -0 -4 -15 -14 -8 -1 -0 -1 -11 -8 -2 -2 -5 -9 -2 -1 -3 -6 -3 -4 -0 -0 -0 -4 -0 -1 -0 -0 -0 -0 -0 -0 -0 -0 -34 -0 -0 -126 -0 -0
-0 -0 -4 -3 -0 -0 -0 -3 -8 -4 -2 -9 -6 -0 -0 -6 -0 -2 -6 -9 -22 -6 -13 -6 -29 -9 -3 -3 -4 -2 -0 -0 -1 -0 -0 -0 -0 -0 -1 -1 -0 -0 -0 -0 -0
-0 -0 -2 -0 -3 -7 -5 -1 -3 -0 -0 -1 -7 -0 -0 -0 -0 -11 -0 -0 -6 -1 -1 -17 -0 -5 -45 -3 -1 -0 -0 -0 -0 -0 -0 -0 -0 -0 -0 -0 -0 -0 -0 -0 -0
-0 -0 -0 -0 -2 -16 -5 -0 -0 -0 -0 -0 -2 -0 -2 -0 -0 -0 -0 -1 -9 -17 -0 -0 -0 -2 -15 -3 -10 -0 -0 -0 -0 -0 -0 -0 -0 -0 -0 -0 -0 -0 -0 -0 -0
-0 -0 -0 -0 -14 -19 -15 -0 -2 -0 -0 -0 -14 -0 -5 -24 -1 -3 -0 -9 -0 -2 -7 -0 -3 -11 -0 -0 -8 -2 -0 -0 -0 -0 -0 -0 -0 -0 -0 -0 -0 -0 -0 -0 -0
-1 -1 -0 -0 -4 -2 -0 -0 -0 -0 -0 -0 -4 -0 -1 -0 -1 -2 -0 -1 -0 -1 -0 -1 -2 -0 -10 -0 -3 -6 -0 -1 -0 -1 -0 -0 -0 -0 -0 -0 -0 -0 -0 -0 -0
-5 -5 -0 -0 -1 -0 -0 -0 -0 -0 -0 -0 -0 -0 -0 -6 -0 -0 -0 -1 -10 -0 -0 -2 -16 -0 -3 -2 -4 -5 -0 -5 -0 -0 -3 -0 -0 -0 -0 -0 -0 -0 -0 -0 -0
-1 -0 -0 -0 -0 -0 -0 -0 -0 -0 -0 -0 -0 -0 -0 -0 -0 -0 -0 -1 -13 -4 -0 -0 -0 -0 -1 -0 -0 -0 -7 -0 -0 -0 -0 -0 -0 -0 -0 -0 -0 -0 -0 -0 -0
-1 -0 -0 -0 -0 -0 -0 -0 -0 -0 -0 -0 -0 -0 -0 -0 -0 -0 -13 -0 -3 -12 -1 -0 -0 -0 -0 -0 -0 -0 -0 -0 -2 -0 -0 -0 -0 -0 -0 -0 -0 -0 -0 -0 -0
-2 -0 -0 -2 -0 -0 -0 -0 -0 -0 -0 -0 -0 -0 -0 -1 -0 -0 -0 -4 -15 -0 -8 -1 -0 -4 -0 -0 -0 -0 -0 -0 -0 -0 -0 -0 -0 -0 -0 -0 -0 -0 -0 -0 -0
-0 -0 -0 -0 -0 -0 -0 -0 -0 -0 -0 -0 -0 -0 -0 -0 -0 -0 -2 -4 -0 -0 -1 -7 -3 -0 -0 -0 -0 -4 -0 -0 -0 -0 -0 -0 -0 -0 -0 -0 -0 -0 -0 -0 -0
-0 -0 -0 -0 -0 -0 -0 -0 -0 -0 -0 -0 -0 -0 -0 -0 -0 -0 -0 -0 -0 -0 -0 -0 -4 -0 -0 -0 -0 -0 -5 -0 -0 -0 -0 -0 -0 -0 -0 -0 -0 -0 -0 -0 -0
-0 -0 -0 -0 -0 -0 -0 -0 -0 -0 -0 -0 -0 -0 -0 -0 -0 -0 -0 -0 -0 -1 -0 -0 -0 -0 -2 -0 -0 -0 -0 -0 -0 -0 -0 -0 -0 -0 -0 -0 -0 -0 -0 -0 -0
Wind_Speed
7 7 7 9 9 9 10 10 10 10 11 12 12 13 11 13 14 4 6 3 3 7 10 8 4 5 6 4 5 3 4 4 5 5 5 3 3 2 2 7 5 7 7 14 18
6 7 8 8 9 9 10 10 10 11 11 12 12 12 13 11 3 7 2 4 5 6 3 3 7 5 5 5 4 3 3 4 8 7 7 5 4 4 4 8 8 10 16 16 17
5 7 7 9 9 10 9 10 11 12 13 14 13 12 12 11 4 4 5 5 4 3 3 6 6 9 11 7 6 4 3 5 4 9 8 2 5 4 5 6 8 15 16 14 16
6 6 7 6 8 9 9 9 11 12 13 14 15 13 14 6 7 1 4 4 4 4 3 2 3 9 9 14 9 4 4 3 4 4 4 4 5 3 3 5 6 13 18 13 13
5 6 7 8 9 10 9 9 9 10 12 14 15 14 10 8 7 3 3 1 3 4 8 4 4 11 18 11 13 13 8 6 5 2 2 4 4 4 3 9 7 18 16 14 11
4 5 6 7 8 10 8 9 10 12 11 13 15 16 10 14 4 4 2 1 0 5 6 7 4 2 9 15 18 12 9 8 7 6 2 3 4 0 6 5 9 11 13 11 10
7 6 6 7 6 7 9 9 10 11 14 12 13 11 14 12 3 1 4 0 2 2 6 5 2 3 2 4 6 11 11 12 12 8 3 1 5 7 7 5 10 9 10 10 9
9 6 6 6 6 7 9 9 10 12 13 14 10 9 9 3 3 2 6 3 3 5 4 5 1 4 3 2 4 5 1 10 10 9 5 3 5 9 7 6 8 10 10 10 8
8 6 6 6 6 8 11 10 11 13 13 13 6 8 11 4 6 8 3 4 4 4 4 4 2 4 6 4 5 7 9 7 2 4 6 7 5 5 7 5 4 9 11 9 10
9 8 8 6 6 8 8 10 11 10 9 9 6 5 8 7 4 2 5 4 6 7 2 5 5 3 6 8 9 14 18 5 8 2 9 10 10 9 8 4 3 6 10 9 9
9 9 8 5 5 6 6 7 5 4 7 7 1 11 7 3 3 7 8 4 5 5 7 6 6 8 16 17 7 7 10 7 3 5 4 13 13 15 8 5 4 5 9 10 8
11 8 5 2 3 2 4 5 5 2 8 11 9 10 10 7 5 7 4 5 7 9 9 3 10 10 1 8 6 9 15 7 5 5 4 11 15 11 10 6 8 5 7 11 8
10 6 5 3 3 2 5 5 3 7 5 4 9 5 4 7 6 6 10 5 7 12 10 5 7 1 8 8 9 6 10 10 7 6 1 2 8 12 10 5 5 5 5 8 15
9 7 6 6 2 2 1 7 4 4 4 4 5 2 3 4 5 2 6 5 4 6 8 8 5 7 7 5 0 7 9 9 11 10 4 5 3 13 15 10 8 7 3 11 15
9 8 8 5 3 2 5 3 3 2 4 3 1 2 4 6 5 5 2 4 6 4 5 1 8 4 9 4 2 2 8 7 6 4 2 5 2 7 18 17 10 8 9 12 13
9 9 7 3 2 4 3 4 2 2 5 4 4 3 3 7 5 1 4 1 1 4 2 1 0 4 1 8 4 4 10 11 6 3 3 6 6 4 3 6 13 10 10 13 13
12 9 1 3 2 5 4 2 1 2 2 5 5 6 6 5 5 5 6 6 4 3 4 5 4 2 3 8 10 7 5 2 3 2 3 1 6 7 5 8 14 15 12 12 13
12 6 4 4 4 3 1 3 2 0 3 3 2 9 4 2 5 3 6 6 1 1 5 5 3 6 6 1 5 11 6 2 2 3 3 4 6 3 4 8 15 13 13 12 12
10 3 2 4 6 3 4 1 3 4 2 5 2 2 1 5 2 4 1 3 6 6 3 5 4 5 8 5 3 3 4 1 4 2 3 4 2 2 7 11 13 15 13 13 13
2 3 3 6 6 1 3 3 2 2 2 2 3 1 2 2 3 2 1 4 2 11 6 3 4 4 2 0 4 2 8 4 3 4 4 4 4 4 7 11 11 12 13 14 13
2 2 2 3 3 4 1 3 3 3 3 3 3 4 3 3 1 2 3 2 4 3 10 6 2 2 2 2 3 4 3 4 2 1 3 4 3 4 6 14 13 12 13 15 14
1 2 2 3 2 2 0 2 4 1 2 2 3 5 1 3 2 3 5 3 6 7 4 1 1 4 2 2 4 3 1 5 3 3 2 3 3 6 5 13 14 13 13 13 12
2 2 2 3 1 1 1 3 2 2 2 2 3 3 3 2 4 5 3 1 3 5 4 4 2 3 1 1 3 2 2 3 3 3 4 4 2 2 3 11 13 15 14 12 12
1 1 3 3 1 2 1 2 2 3 3 1 3 3 1 4 5 4 3 2 3 4 1 0 1 2 1 3 6 6 9 9 4 3 3 4 2 4 6 10 13 15 15 14 11
3 1 0 1 2 3 2 2 2 2 2 2 3 5 4 3 2 4 3 2 1 3 1 2 3 3 4 3 2 4 10 14 14 11 7 5 6 5 12 13 16 17 16 14 12
3 3 2 1 3 3 3 3 3 1 1 3 3 4 6 3 3 4 4 3 2 3 1 2 2 2 1 2 1 2 8 12 11 14 12 14 11 3 7 7 12 15 17 16 15
1 2 1 3 2 1 3 2 3 6 2 2 2 4 0 2 1 2 3 6 5 2 3 4 2 1 3 4 2 4 10 13 11 7 12 10 11 5 4 9 16 17 18 17 15
Wind_Direction
338 346 344 349 349 348 352 355 349 346 339 331 338 340 344 346 322 265 257 8 332 343 317 297 270 259 245 257 238 309 269 191 238 169 109 164 175 48 40 116 53 46 46 107 139
309 325 335 337 341 342 343 344 345 339 334 330 329 336 334 342 300 258 352 355 341 348 338 326 217 223 238 226 243 226 270 22 30 16 80 106 315 118 189 123 123 94 88 114 143
309 296 316 325 326 334 336 340 338 336 331 328 324 328 327 319 278 216 30 357 342 340 338 346 302 247 238 231 211 210 244 131 88 34 351 357 89 332 270 169 129 152 136 139 154
287 295 286 312 322 317 326 331 333 331 329 324 322 323 318 277 233 114 26 337 321 265 205 214 225 208 213 220 209 262 265 327 70 75 308 19 320 215 309 107 45 115 136 147 172
295 291 266 294 302 315 310 318 322 326 324 323 319 319 311 229 243 130 351 24 275 219 213 201 225 206 218 214 217 213 238 202 100 176 326 349 261 2 302 99 80 110 128 157 177
268 280 269 293 296 305 302 313 314 318 317 317 316 318 262 254 97 137 77 271 59 237 236 193 221 312 227 234 211 197 215 246 171 207 256 335 334 271 101 109 114 131 143 165 186
242 253 269 288 291 301 297 305 303 310 311 310 312 303 276 252 140 75 147 169 129 20 287 249 216 210 182 242 293 218 199 229 242 189 226 10 267 225 137 145 139 157 145 161 179
230 237 256 279 282 303 302 295 292 301 304 301 301 294 263 271 293 219 166 151 218 123 286 321 1 209 228 98 360 156 334 202 205 196 167 141 278 190 137 162 175 162 143 152 172
216 215 246 270 275 299 303 293 285 289 291 288 266 226 268 128 224 220 213 243 178 122 256 285 216 192 145 171 173 184 188 190 181 239 184 170 238 231 144 157 231 152 141 155 165
213 208 237 255 276 303 295 279 279 298 258 252 248 283 251 262 147 249 211 228 218 125 209 189 228 215 155 194 194 188 201 168 205 180 249 187 229 271 157 143 281 164 141 150 157
193 206 224 249 280 294 295 261 256 212 241 251 331 266 298 326 224 213 214 225 224 162 221 170 235 228 186 179 186 164 196 202 128 102 55 253 211 239 248 181 198 270 142 145 155
177 188 209 234 266 293 283 281 55 338 299 231 257 285 283 290 262 203 159 209 208 204 196 274 232 286 223 223 151 175 171 181 34 51 136 275 237 229 237 230 174 257 164 144 136
155 164 161 176 157 237 264 329 8 338 265 211 232 280 301 315 287 196 180 205 237 226 208 236 320 272 202 213 206 183 176 160 136 136 173 275 263 252 238 253 123 66 10 141 120
147 154 142 161 189 15 290 24 325 311 285 199 215 217 223 260 267 113 226 258 235 257 221 214 209 292 324 122 263 157 111 107 126 155 204 180 251 213 222 210 148 124 293 105 102
146 151 159 199 343 258 19 325 285 257 295 2 131 20 296 242 336 178 342 224 261 238 126 191 164 205 213 63 70 14 131 137 136 107 68 169 246 287 191 206 153 137 108 97 96
137 136 142 237 236 23 335 301 263 293 258 332 317 221 225 226 263 329 202 247 25 307 120 105 295 146 105 154 131 117 74 59 54 75 193 180 191 263 177 172 135 102 91 99 98
117 100 251 3 31 322 338 264 354 237 245 355 336 326 239 214 251 33 204 189 192 145 179 199 183 103 116 123 170 166 114 90 125 154 190 50 174 241 54 69 145 135 121 110 108
121 135 62 54 348 342 309 47 280 237 22 356 302 315 268 237 254 64 317 204 209 345 146 178 201 163 161 129 181 187 151 103 172 169 139 347 213 230 63 74 109 114 119 112 112
156 158 86 9 337 357 60 156 309 8 298 330 277 296 265 329 322 123 260 302 185 200 255 166 151 40 23 49 332 148 143 68 98 125 104 197 268 171 113 105 116 127 136 128 124
179 158 59 326 316 61 90 260 307 269 313 278 294 221 242 204 263 161 163 277 272 177 227 329 119 5 75 161 39 29 147 87 25 145 214 192 197 218 176 147 137 146 141 134 132
249 47 27 335 316 56 19 5 295 13 313 305 316 303 316 356 307 259 338 301 294 200 146 316 346 82 147 243 153 129 147 73 72 117 203 134 238 351 201 162 156 157 148 144 143
46 60 24 291 20 62 56 314 317 317 29 295 285 248 292 345 249 273 214 273 358 321 130 232 351 126 71 344 14 354 146 165 161 188 262 107 270 335 1 150 152 155 150 140 136
131 111 128 281 253 126 332 286 261 261 217 290 266 320 37 289 269 223 274 24 28 326 147 165 294 105 74 4 40 238 215 329 34 61 201 118 258 316 16 140 155 145 146 145 140
149 50 349 18 234 177 251 265 265 227 281 119 301 280 256 220 222 312 242 75 28 352 69 78 194 357 70 30 115 176 202 202 187 170 147 213 176 187 189 162 159 155 157 152 155
0 156 319 242 252 206 226 171 225 246 220 250 241 253 322 289 196 208 280 107 15 325 332 62 215 212 112 2 178 194 198 191 208 216 204 184 230 203 189 192 175 160 153 154 164
141 154 185 181 270 188 182 217 207 159 240 168 260 337 282 264 11 4 338 22 186 190 271 105 295 193 50 44 249 308 193 208 218 225 258 272 263 234 165 162 145 163 163 174 179
85 86 287 141 204 173 201 194 239 144 179 9 316 313 12 20 291 299 293 293 298 239 201 164 159 120 179 348 326 337 214 195 207 214 217 231 241 161 167 182 177 173 174 182 182